Time,TemperatureF,DewpointF,PressureIn,WindDirection,WindDirectionDegrees,WindSpeedMPH,WindSpeedGustMPH,Humidity,HourlyPrecipIn,Conditions,Clouds,dailyrainin,SoftwareType,DateUTC
2013-04-23 00:11:00,36.3,30.4,30.38,NE,45,3.8,-999.0,79,-99.99,,,0.00,Acu-Link.com,2013-04-23 04:11:00,
2013-04-23 00:26:00,36.1,30.3,30.37,East,90,3.1,-999.0,79,-99.99,,,0.00,Acu-Link.com,2013-04-23 04:26:00,
2013-04-23 00:41:00,36.1,30.6,30.37,NNE,22,2.7,-999.0,80,-99.99,,,0.00,Acu-Link.com,2013-04-23 04:41:00,
2013-04-23 00:56:00,36.1,30.6,30.37,NE,45,2.7,-999.0,80,-99.99,,,0.00,Acu-Link.com,2013-04-23 04:56:00,
2013-04-23 01:12:00,36.1,30.9,30.36,ENE,67,2.7,-999.0,81,-99.99,,,0.00,Acu-Link.com,2013-04-23 05:12:00,
2013-04-23 01:27:00,36.1,31.2,30.35,ESE,112,3.8,-999.0,82,-99.99,,,0.00,Acu-Link.com,2013-04-23 05:27:00,
2013-04-23 01:42:00,36.1,31.2,30.35,NE,45,3.8,-999.0,82,-99.99,,,0.00,Acu-Link.com,2013-04-23 05:42:00,
2013-04-23 01:57:00,36.1,31.5,30.35,ESE,112,4.3,-999.0,83,-99.99,,,0.00,Acu-Link.com,2013-04-23 05:57:00,
2013-04-23 02:12:00,36.1,31.5,30.34,NNE,22,3.1,-999.0,83,-99.99,,,0.00,Acu-Link.com,2013-04-23 06:12:00,
2013-04-23 02:27:00,36.0,31.6,30.33,NNE,22,2.7,-999.0,84,-99.99,,,0.00,Acu-Link.com,2013-04-23 06:27:00,
2013-04-23 02:43:00,35.4,31.1,30.32,NNW,337,2.7,-999.0,84,-99.99,,,0.00,Acu-Link.com,2013-04-23 06:43:00,
2013-04-23 02:58:00,35.2,31.2,30.32,NNE,22,2.7,-999.0,85,-99.99,,,0.00,Acu-Link.com,2013-04-23 06:58:00,
2013-04-23 03:13:00,35.2,31.2,30.31,NNW,337,2.7,-999.0,85,-99.99,,,0.00,Acu-Link.com,2013-04-23 07:13:00,
2013-04-23 03:28:00,35.2,31.5,30.31,North,0,3.1,-999.0,86,-99.99,,,0.00,Acu-Link.com,2013-04-23 07:28:00,
2013-04-23 03:44:00,35.1,31.3,30.30,WNW,292,2.7,-999.0,86,-99.99,,,0.00,Acu-Link.com,2013-04-23 07:44:00,
2013-04-23 03:59:00,35.1,31.3,30.29,NNW,337,3.8,-999.0,86,-99.99,,,0.00,Acu-Link.com,2013-04-23 07:59:00,
2013-04-23 04:14:00,34.9,31.4,30.29,NNW,337,4.3,-999.0,87,-99.99,,,0.00,Acu-Link.com,2013-04-23 08:14:00,
2013-04-23 04:29:00,34.9,31.4,30.29,NW,315,4.3,-999.0,87,-99.99,,,0.00,Acu-Link.com,2013-04-23 08:29:00,
2013-04-23 04:44:00,34.9,31.4,30.29,NNW,337,3.1,-999.0,87,-99.99,,,0.00,Acu-Link.com,2013-04-23 08:44:00,
2013-04-23 05:00:00,34.9,31.4,30.29,NNW,337,2.7,-999.0,87,-99.99,,,0.00,Acu-Link.com,2013-04-23 09:00:00,
2013-04-23 05:15:00,35.1,31.6,30.28,NNW,337,3.1,-999.0,87,-99.99,,,0.00,Acu-Link.com,2013-04-23 09:15:00,
2013-04-23 05:30:00,35.1,31.6,30.28,NNW,337,2.7,-999.0,87,-99.99,,,0.00,Acu-Link.com,2013-04-23 09:30:00,
2013-04-23 05:45:00,35.2,31.8,30.29,NNW,337,3.1,-999.0,87,-99.99,,,0.00,Acu-Link.com,2013-04-23 09:45:00,
2013-04-23 06:00:00,35.2,31.8,30.28,NW,315,4.3,-999.0,87,-99.99,,,0.00,Acu-Link.com,2013-04-23 10:00:00,
2013-04-23 06:16:00,35.2,31.8,30.28,NNW,337,4.7,-999.0,87,-99.99,,,0.00,Acu-Link.com,2013-04-23 10:16:00,
2013-04-23 06:31:00,35.4,31.9,30.28,NNW,337,4.3,-999.0,87,-99.99,,,0.00,Acu-Link.com,2013-04-23 10:31:00,
2013-04-23 06:46:00,35.6,31.8,30.28,NE,45,4.3,-999.0,86,-99.99,,,0.00,Acu-Link.com,2013-04-23 10:46:00,
2013-04-23 07:01:00,35.8,32.3,30.28,NNW,337,2.7,-999.0,87,-99.99,,,0.00,Acu-Link.com,2013-04-23 11:01:00,
2013-04-23 07:17:00,35.8,32.6,30.28,North,0,2.7,-999.0,88,-99.99,,,0.00,Acu-Link.com,2013-04-23 11:17:00,
2013-04-23 07:32:00,35.6,32.7,30.28,North,0,3.1,-999.0,89,-99.99,,,0.00,Acu-Link.com,2013-04-23 11:32:00,
2013-04-23 07:47:00,35.6,33.2,30.28,NNW,337,3.8,-999.0,91,-99.99,,,0.00,Acu-Link.com,2013-04-23 11:47:00,
2013-04-23 08:02:00,35.6,33.5,30.27,NNE,22,3.1,-999.0,92,-99.99,,,0.00,Acu-Link.com,2013-04-23 12:02:00,
2013-04-23 08:17:00,35.4,33.9,30.28,NE,45,4.3,-999.0,94,-99.99,,,0.00,Acu-Link.com,2013-04-23 12:17:00,
2013-04-23 08:33:00,35.4,34.7,30.27,North,0,5.8,-999.0,97,-99.99,,,0.00,Acu-Link.com,2013-04-23 12:33:00,
2013-04-23 08:48:00,35.4,35.2,30.26,NNE,22,5.8,-999.0,99,-99.99,,,0.00,Acu-Link.com,2013-04-23 12:48:00,
2013-04-23 09:03:00,35.2,35.0,30.26,NNW,337,6.3,-999.0,99,-99.99,,,0.00,Acu-Link.com,2013-04-23 13:03:00,
2013-04-23 09:18:00,35.8,35.5,30.26,NE,45,3.1,-999.0,99,-99.99,,,0.00,Acu-Link.com,2013-04-23 13:18:00,
2013-04-23 09:34:00,35.6,35.3,30.25,NNE,22,3.8,-999.0,99,-99.99,,,0.00,Acu-Link.com,2013-04-23 13:34:00,
2013-04-23 09:49:00,35.8,35.5,30.25,NNW,337,5.1,-999.0,99,-99.99,,,0.00,Acu-Link.com,2013-04-23 13:49:00,
2013-04-23 10:04:00,36.0,35.7,30.24,NNW,337,4.7,-999.0,99,-99.99,,,0.00,Acu-Link.com,2013-04-23 14:04:00,
2013-04-23 10:19:00,36.5,36.2,30.24,NE,45,3.1,-999.0,99,-99.99,,,0.00,Acu-Link.com,2013-04-23 14:19:00,
2013-04-23 10:34:00,36.9,36.6,30.24,NW,315,4.3,-999.0,99,-99.99,,,0.00,Acu-Link.com,2013-04-23 14:34:00,
2013-04-23 10:50:00,36.9,36.6,30.24,NNE,22,4.7,-999.0,99,-99.99,,,0.00,Acu-Link.com,2013-04-23 14:50:00,
2013-04-23 11:05:00,37.0,36.8,30.23,ENE,67,4.7,-999.0,99,-99.99,,,0.00,Acu-Link.com,2013-04-23 15:05:00,
2013-04-23 11:20:00,37.4,37.1,30.23,North,0,6.7,-999.0,99,-99.99,,,0.00,Acu-Link.com,2013-04-23 15:20:00,
2013-04-23 11:35:00,37.6,37.3,30.22,NE,45,3.8,-999.0,99,-99.99,,,0.00,Acu-Link.com,2013-04-23 15:35:00,
2013-04-23 11:50:00,37.9,37.7,30.22,NW,315,5.1,-999.0,99,-99.99,,,0.00,Acu-Link.com,2013-04-23 15:50:00,
2013-04-23 12:06:00,37.9,37.7,30.22,East,90,4.3,-999.0,99,-99.99,,,0.00,Acu-Link.com,2013-04-23 16:06:00,
2013-04-23 12:21:00,37.9,37.7,30.21,SE,135,5.1,-999.0,99,-99.99,,,0.00,Acu-Link.com,2013-04-23 16:21:00,
2013-04-23 12:36:00,38.1,37.9,30.20,NNE,22,5.1,-999.0,99,-99.99,,,0.00,Acu-Link.com,2013-04-23 16:36:00,
2013-04-23 12:51:00,38.1,37.9,30.19,East,90,5.1,-999.0,99,-99.99,,,0.00,Acu-Link.com,2013-04-23 16:51:00,
2013-04-23 13:07:00,38.3,38.0,30.19,ESE,112,7.8,-999.0,99,-99.99,,,0.00,Acu-Link.com,2013-04-23 17:07:00,
2013-04-23 13:22:00,38.1,37.9,30.18,East,90,4.3,-999.0,99,-99.99,,,0.00,Acu-Link.com,2013-04-23 17:22:00,
2013-04-23 13:37:00,38.3,38.0,30.17,NE,45,4.3,-999.0,99,-99.99,,,0.00,Acu-Link.com,2013-04-23 17:37:00,
2013-04-23 13:52:00,38.5,38.2,30.16,ENE,67,7.4,-999.0,99,-99.99,,,0.00,Acu-Link.com,2013-04-23 17:52:00,
2013-04-23 14:07:00,38.3,38.0,30.16,North,0,5.8,-999.0,99,-99.99,,,0.00,Acu-Link.com,2013-04-23 18:07:00,
2013-04-23 14:23:00,38.5,38.2,30.15,NE,45,4.3,-999.0,99,-99.99,,,0.00,Acu-Link.com,2013-04-23 18:23:00,
2013-04-23 14:38:00,38.5,38.2,30.14,NE,45,3.1,-999.0,99,-99.99,,,0.00,Acu-Link.com,2013-04-23 18:38:00,
2013-04-23 14:53:00,38.5,38.2,30.14,NE,45,5.1,-999.0,99,-99.99,,,0.00,Acu-Link.com,2013-04-23 18:53:00,
2013-04-23 15:08:00,38.7,38.4,30.13,NNE,22,4.3,-999.0,99,-99.99,,,0.00,Acu-Link.com,2013-04-23 19:08:00,
2013-04-23 15:24:00,38.7,38.4,30.12,NNE,22,6.3,-999.0,99,-99.99,,,0.00,Acu-Link.com,2013-04-23 19:24:00,
2013-04-23 15:39:00,38.8,38.6,30.11,NE,45,3.8,-999.0,99,-99.99,,,0.00,Acu-Link.com,2013-04-23 19:39:00,
2013-04-23 15:54:00,38.7,38.4,30.11,East,90,4.7,-999.0,99,-99.99,,,0.00,Acu-Link.com,2013-04-23 19:54:00,
2013-04-23 16:09:00,38.7,38.4,30.10,NNE,22,5.8,-999.0,99,-99.99,,,0.00,Acu-Link.com,2013-04-23 20:09:00,
2013-04-23 16:25:00,38.7,38.4,30.10,NW,315,3.8,-999.0,99,-99.99,,,0.00,Acu-Link.com,2013-04-23 20:25:00,
2013-04-23 16:40:00,38.7,38.4,30.10,NNE,22,4.3,-999.0,99,-99.99,,,0.00,Acu-Link.com,2013-04-23 20:40:00,
2013-04-23 16:55:00,38.8,38.6,30.10,NE,45,4.7,-999.0,99,-99.99,,,0.00,Acu-Link.com,2013-04-23 20:55:00,
2013-04-23 17:10:00,39.0,38.8,30.10,NNW,337,4.7,-999.0,99,-99.99,,,0.00,Acu-Link.com,2013-04-23 21:10:00,
2013-04-23 17:26:00,39.0,38.8,30.09,NNE,22,4.7,-999.0,99,-99.99,,,0.00,Acu-Link.com,2013-04-23 21:26:00,
2013-04-23 17:41:00,39.2,38.9,30.09,NE,45,3.1,-999.0,99,-99.99,,,0.00,Acu-Link.com,2013-04-23 21:41:00,
2013-04-23 17:56:00,39.2,38.9,30.08,NNE,22,6.3,-999.0,99,-99.99,,,0.00,Acu-Link.com,2013-04-23 21:56:00,
2013-04-23 18:11:00,39.4,39.1,30.06,NE,45,4.3,-999.0,99,-99.99,,,0.00,Acu-Link.com,2013-04-23 22:11:00,
2013-04-23 18:26:00,39.4,39.1,30.06,NE,45,5.1,-999.0,99,-99.99,,,0.00,Acu-Link.com,2013-04-23 22:26:00,
2013-04-23 18:42:00,39.2,38.9,30.06,NNW,337,6.3,-999.0,99,-99.99,,,0.00,Acu-Link.com,2013-04-23 22:42:00,
2013-04-23 18:57:00,39.2,38.9,30.05,NNW,337,5.8,-999.0,99,-99.99,,,0.00,Acu-Link.com,2013-04-23 22:57:00,
2013-04-23 19:12:00,39.0,38.8,30.05,NE,45,5.1,-999.0,99,-99.99,,,0.00,Acu-Link.com,2013-04-23 23:12:00,
2013-04-23 19:27:00,39.0,38.8,30.04,NNW,337,7.4,-999.0,99,-99.99,,,0.00,Acu-Link.com,2013-04-23 23:27:00,
2013-04-23 19:42:00,39.0,38.8,30.04,NNE,22,3.8,-999.0,99,-99.99,,,0.00,Acu-Link.com,2013-04-23 23:42:00,
2013-04-23 19:58:00,39.0,38.8,30.03,NNE,22,6.3,-999.0,99,-99.99,,,0.00,Acu-Link.com,2013-04-23 23:58:00,
2013-04-23 20:13:00,38.8,38.6,30.02,NE,45,4.3,-999.0,99,-99.99,,,0.00,Acu-Link.com,2013-04-24 00:13:00,
2013-04-23 20:28:00,38.8,38.6,30.02,East,90,2.7,-999.0,99,-99.99,,,0.00,Acu-Link.com,2013-04-24 00:28:00,
2013-04-23 20:43:00,38.7,38.4,30.01,ENE,67,2.7,-999.0,99,-99.99,,,0.00,Acu-Link.com,2013-04-24 00:43:00,
2013-04-23 20:59:00,38.7,38.4,30.02,NW,315,5.1,-999.0,99,-99.99,,,0.00,Acu-Link.com,2013-04-24 00:59:00,
2013-04-23 21:14:00,38.7,38.4,30.02,WNW,292,4.7,-999.0,99,-99.99,,,0.00,Acu-Link.com,2013-04-24 01:14:00,
2013-04-23 21:29:00,38.7,38.4,30.01,North,0,3.8,-999.0,99,-99.99,,,0.00,Acu-Link.com,2013-04-24 01:29:00,
2013-04-23 21:44:00,38.7,38.4,30.00,NNE,22,3.8,-999.0,99,-99.99,,,0.00,Acu-Link.com,2013-04-24 01:44:00,
2013-04-23 21:59:00,38.7,38.4,30.00,NNW,337,5.8,-999.0,99,-99.99,,,0.00,Acu-Link.com,2013-04-24 01:59:00,
2013-04-23 22:15:00,38.7,38.4,30.00,NW,315,4.7,-999.0,99,-99.99,,,0.00,Acu-Link.com,2013-04-24 02:15:00,
2013-04-23 22:30:00,38.7,38.4,30.00,NW,315,4.3,-999.0,99,-99.99,,,0.00,Acu-Link.com,2013-04-24 02:30:00,
2013-04-23 22:45:00,38.7,38.4,29.99,NW,315,5.1,-999.0,99,-99.99,,,0.00,Acu-Link.com,2013-04-24 02:45:00,
2013-04-23 23:00:00,38.7,38.4,29.98,NNE,22,3.8,-999.0,99,-99.99,,,0.00,Acu-Link.com,2013-04-24 03:00:00,
2013-04-23 23:16:00,38.7,38.4,29.97,NNW,337,4.3,-999.0,99,-99.99,,,0.00,Acu-Link.com,2013-04-24 03:16:00,
2013-04-23 23:31:00,38.7,38.4,29.95,NNW,337,4.3,-999.0,99,-99.99,,,0.00,Acu-Link.com,2013-04-24 03:31:00,
2013-04-23 23:46:00,38.8,38.6,29.93,NNW,337,4.7,-999.0,99,-99.99,,,0.00,Acu-Link.com,2013-04-24 03:46:00,